Flag for Germany Weather past 2 weeks in Nürtingen, Baden-Württemberg, Germany

Now
59 °F

Partly cloudy.


Feels Like: 59 °F
Forecast: 51 / 77 °F
Wind: 5 mph from Southwest

Location: Stuttgart-Echterdingen

Current Time: Jul 14, 2014 at 3:34:11 AM

Latest Report: Jul 14, 2014 at 3:20 AM


Visibility: N/A

Pressure: 29.89 "Hg

Humidity: 94%

Dew point: 57 °F

Location of NürtingenLocation

Historic Weather in Nürtingen — Graph

°F

Nürtingen temperature yesterday

Maximum temperature yesterday: 75 °F (at 2:50 PM)
Minimum temperature yesterday: 59 °F (at 5:50 AM)
Average temperature yesterday: 66 °F

Past Weeks' High & Low Weather Summary

 TemperatureHumidityPressure
High86 °F (Jul 4, 2:20 PM)100% (Jul 3, 6:20 AM)30.30 "Hg (Jul 3, 6:20 AM)
Low48 °F (Jul 1, 5:50 AM)24% (Jul 3, 3:50 PM)29.77 "Hg (Jun 29, 4:20 AM)
Average63 °F73%29.95 "Hg
* Reported Jun 29 2:20 AM — Jul 14 2:20 AM, Nürtingen, Weather by CustomWeather, © 2014

Note: Actual official high and low records may vary slightly from our data, if they occured in-between our weather recording intervals... More about our weather records

Advertising

Nürtingen weather history for previous 24 hours

 ConditionsComfort  
Time TempWeatherWind HumidityBarometerVisibility
2:20 AM
Jul 14
61 °FPartly cloudy.1 mph88%29.89 "HgN/A
1:50 AM61 °FPartly cloudy.2 mph94%29.89 "HgN/A
1:20 AM61 °FSprinkles. Partly cloudy.3 mph94%29.89 "HgN/A
12:50 AM61 °FSprinkles. Passing clouds.2 mph94%29.89 "HgN/A
12:20 AM61 °FSprinkles. Passing clouds.2 mph88%29.89 "HgN/A
11:50 PM
Jul 13
61 °FPartly cloudy.2 mph88%29.89 "HgN/A
11:20 PM61 °FSprinkles. Partly cloudy.6 mph94%29.89 "HgN/A
10:50 PM63 °FSprinkles. Partly cloudy.7 mph88%29.89 "HgN/A
10:20 PM63 °FScattered showers. Partly sunny.7 mph88%29.89 "HgN/A
9:50 PM63 °FSprinkles. Broken clouds.8 mph88%29.89 "HgN/A
9:20 PM64 °FRain showers. Broken clouds.14 mph83%29.89 "HgN/A
8:20 PM70 °FBroken clouds.8 mph60%29.86 "HgN/A
7:50 PM70 °FBroken clouds.8 mph64%29.86 "HgN/A
7:20 PM70 °FBroken clouds.9 mph60%29.83 "HgN/A
6:50 PM70 °FBroken clouds.16 mph60%29.83 "HgN/A
6:20 PM72 °FThundershowers. Partly sunny.14 mph53%29.83 "HgN/A
5:50 PM73 °FBroken clouds.8 mph53%29.83 "HgN/A
5:20 PM73 °FBroken clouds.6 mph53%29.83 "HgN/A
4:50 PM73 °FScattered showers. Broken clouds.12 mph50%29.83 "HgN/A
4:20 PM73 °FPartly sunny.9 mph50%29.83 "HgN/A
3:50 PM73 °FBroken clouds.10 mph50%29.86 "HgN/A
3:20 PM73 °FBroken clouds.7 mph50%29.86 "HgN/A
2:50 PM75 °FBroken clouds.7 mph47%29.86 "HgN/A
2:20 PM72 °FBroken clouds.10 mph57%29.86 "HgN/A
1:50 PM72 °FPartly sunny.8 mph57%29.89 "HgN/A
1:20 PM70 °FPartly sunny.10 mph60%29.89 "HgN/A
12:50 PM68 °FPartly sunny.9 mph69%29.89 "HgN/A
12:20 PM68 °FPartly sunny.8 mph69%29.89 "HgN/A
11:50 AM68 °FPartly sunny.8 mph73%29.89 "HgN/A
11:20 AM66 °FPartly sunny.7 mph73%29.92 "HgN/A
10:50 AM66 °FSunny.7 mph73%29.92 "Hg10 mi
10:20 AM64 °FSunny.7 mph78%29.92 "Hg10 mi
9:50 AM64 °FPartly sunny.6 mph78%29.92 "HgN/A
9:20 AM64 °FPartly sunny.6 mph78%29.92 "HgN/A
8:50 AM63 °FPartly sunny.6 mph83%29.92 "HgN/A
8:20 AM63 °FPartly sunny.7 mph83%29.92 "HgN/A
7:50 AM61 °FPartly sunny.5 mph88%29.92 "HgN/A
7:20 AM61 °FPartly sunny.3 mph88%29.92 "HgN/A
6:50 AM61 °FPartly sunny.3 mph88%29.92 "HgN/A
6:20 AM59 °FPassing clouds.5 mph88%29.92 "HgN/A
5:50 AM59 °FPassing clouds.3 mph88%29.92 "HgN/A
5:20 AM61 °FPassing clouds.2 mph83%29.92 "HgN/A
4:50 AM61 °FPassing clouds.2 mph83%29.92 "HgN/A
4:20 AM61 °FPassing clouds.3 mph83%29.92 "HgN/A
3:50 AM61 °FPartly cloudy.3 mph83%29.92 "HgN/A
3:20 AM61 °FPassing clouds.2 mph83%29.92 "HgN/A
Weather by CustomWeather, © 2014

See weather overviewHow to use our weather pages